Weather History for KRIV - August, 2014

Change the Weather History Date:

Wednesday, August 20, 2014

  Actual Average (KRAL) Record (KRAL)
Temperature  
Mean Temperature 71 °F 79 °F  
Max Temperature 80 °F 94 °F 107 °F (1940)
Min Temperature 62 °F 64 °F 46 °F (1916)
Degree Days  
Heating Degree Days 0 0  
Month to date heating degree days 0  
Since 1 June heating degree days 2  
Since 1 July heating degree days 0  
Cooling Degree Days 6 14  
Month to date cooling degree days 295  
Year to date cooling degree days 1107  
Since 1 June cooling degree days 930  
Growing Degree Days 21 (Base 50)    
Moisture  
Dew Point 59 °F    
Average Humidity 73    
Maximum Humidity 91    
Minimum Humidity 30    
Precipitation  
Precipitation 0.27 in 0.00 in 0.09 in (2014)
Month to date precipitation 0.08  
Year to date precipitation 9.34  
Sea Level Pressure  
Sea Level Pressure 29.92 in    
Wind  
Wind Speed 3 mph (SSE)    
Max Wind Speed 10 mph    
Max Gust Speed -    
Visibility 10 miles    
Events Rain , Thunderstorm    
T = Trace of Precipitation, MM = Missing Value Source: NWS Daily Summary

Daily Weather History Graph

Daily Weather History Graph

Search for Another Location

Airport or City:

Trip Planner

Search our weather history database for the weather conditions in past years. The results will help you decide how hot, cold, wet, or windy it might be!

Date:

Astronomy

Aug. 20, 2014 Rise Set
Actual Time 6:14 AM PDT 7:29 PM PDT
Civil Twilight 5:48 AM PDT 7:55 PM PDT
Nautical Twilight 5:17 AM PDT 8:26 PM PDT
Astronomical Twilight 4:44 AM PDT 8:59 PM PDT
Moon 2:03 AM PDT (8/20) 4:13 PM PDT (8/20)
Length of Visible Light 14h 07m
Length of Day
13h 15m
Waning Crescent, 20% of the Moon is Illuminated
Aug 20
Waning Crescent
Aug 25
New
Sep 2
First Quarter
Sep 8
Full
Sep 15
Last Quarter

Hourly Weather History & Observations

Time (PDT) Temp. Dew Point Humidity Pressure Visibility Wind Dir Wind Speed Gust Speed Precip Events Conditions
12:58 AM 64.0 °F 57.9 °F 80% 29.88 in 10.0 mi Calm Calm - N/A   Clear
1:39 AM 62.6 °F 59.0 °F 88% 29.92 in 10.0 mi SSE 5.8 mph - N/A   Scattered Clouds
1:44 AM 62.6 °F 59.0 °F 88% 29.92 in 10.0 mi SSE 8.1 mph - N/A   Mostly Cloudy
1:49 AM 64.4 °F 59.0 °F 83% 29.92 in 10.0 mi South 6.9 mph - N/A   Mostly Cloudy
1:50 AM 64.4 °F 59.0 °F 83% 29.92 in 10.0 mi SSE 6.9 mph - N/A   Mostly Cloudy
1:58 AM 63.5 °F 58.6 °F 84% 29.88 in 10.0 mi SSE 5.8 mph - N/A   Mostly Cloudy
2:58 AM 63.5 °F 58.8 °F 85% 29.88 in 10.0 mi East 2.3 mph - N/A   Mostly Cloudy
3:58 AM 63.5 °F 58.8 °F 85% 29.89 in 10.0 mi Calm Calm - N/A   Mostly Cloudy
4:58 AM 62.6 °F 59.5 °F 90% 29.90 in 10.0 mi Calm Calm - N/A   Mostly Cloudy
5:46 AM 64.4 °F 59.0 °F 83% 29.92 in 10.0 mi Variable 2.3 mph - N/A Thunderstorm Mostly Cloudy
5:58 AM 63.9 °F 59.4 °F 85% 29.90 in 10.0 mi West 3.5 mph - N/A   Mostly Cloudy
6:34 AM 64.4 °F 59.0 °F 83% 29.95 in 10.0 mi SSE 3.5 mph - N/A Thunderstorm Mostly Cloudy
6:48 AM 64.4 °F 59.0 °F 83% 29.92 in 10.0 mi NNW 3.5 mph - N/A Rain , Thunderstorm Light Rain
6:58 AM 64.2 °F 59.9 °F 86% 29.88 in 10.0 mi North 4.6 mph - 0.00 in Rain , Thunderstorm Light Rain
7:09 AM 64.4 °F 60.8 °F 88% 29.92 in 10.0 mi Calm Calm - N/A Thunderstorm Scattered Clouds
7:50 AM 64.4 °F 59.0 °F 83% 29.95 in 10.0 mi Calm Calm - N/A   Scattered Clouds
7:58 AM 64.2 °F 60.3 °F 87% 29.92 in 10.0 mi SSW 3.5 mph - 0.00 in   Scattered Clouds
8:58 AM 65.7 °F 58.6 °F 78% 29.94 in 10.0 mi SSE 3.5 mph - N/A   Mostly Cloudy
9:43 AM 68.0 °F 60.8 °F 78% 29.98 in 10.0 mi ESE 4.6 mph - N/A   Mostly Cloudy
10:58 AM 69.8 °F 57.0 °F 64% 29.94 in 10.0 mi South 4.6 mph - N/A   Mostly Cloudy
11:22 AM 69.8 °F 57.2 °F 64% 29.97 in 10.0 mi East 2.3 mph - N/A Rain Light Rain
11:32 AM 69.8 °F 59.0 °F 68% 29.97 in 10.0 mi East 3.5 mph - N/A   Mostly Cloudy
11:46 AM 71.6 °F 59.0 °F 64% 29.96 in 10.0 mi Variable 2.3 mph - N/A Rain Light Rain
11:53 AM 71.6 °F 57.2 °F 60% 29.96 in 10.0 mi Variable 2.3 mph - N/A   Scattered Clouds
11:58 AM 72.3 °F 56.7 °F 58% 29.94 in 10.0 mi Variable 3.5 mph - 0.00 in   Scattered Clouds
12:58 PM 79.3 °F 47.7 °F 33% 29.93 in 10.0 mi Variable 6.9 mph - N/A   Scattered Clouds
1:05 PM 80.6 °F 46.4 °F 30% 29.95 in 10.0 mi Variable 1.2 mph - N/A Thunderstorm Scattered Clouds
1:31 PM 78.8 °F 50.0 °F 36% 29.95 in 10.0 mi ESE 8.1 mph - N/A Thunderstorm Thunderstorm
1:58 PM 75.2 °F 59.0 °F 57% 29.93 in 7.0 mi ESE 8.1 mph - 0.04 in Rain , Thunderstorm Light Thunderstorms and Rain
2:00 PM 73.4 °F 60.8 °F 65% 29.97 in 9.0 mi SE 10.4 mph - N/A Rain , Thunderstorm Light Thunderstorms and Rain
2:58 PM 71.1 °F 60.4 °F 69% 29.91 in 10.0 mi NE 2.3 mph - 0.17 in Thunderstorm Thunderstorm
3:12 PM 71.6 °F 59.0 °F 64% 29.94 in 10.0 mi Calm Calm - N/A Thunderstorm Mostly Cloudy
3:49 PM 71.6 °F 60.8 °F 69% 29.93 in 10.0 mi SW 2.3 mph - N/A   Mostly Cloudy
3:58 PM 71.6 °F 60.8 °F 69% 29.90 in 10.0 mi Calm Calm - 0.01 in Rain Light Rain
4:21 PM 71.6 °F 60.8 °F 69% 29.92 in 10.0 mi Calm Calm - N/A Thunderstorm Overcast
4:58 PM 73.4 °F 60.8 °F 65% 29.89 in 10.0 mi SW 4.6 mph - 0.00 in Rain , Thunderstorm Light Rain
5:34 PM 71.6 °F 62.6 °F 73% 29.92 in 10.0 mi SSW 2.3 mph - N/A   Mostly Cloudy
5:58 PM 72.7 °F 60.8 °F 66% 29.88 in 10.0 mi SSW 3.5 mph - 0.05 in   Mostly Cloudy
6:58 PM 74.3 °F 58.8 °F 58% 29.87 in 10.0 mi SE 1.2 mph - N/A   Mostly Cloudy
7:58 PM 72.7 °F 61.5 °F 68% 29.88 in 10.0 mi Calm Calm - N/A   Scattered Clouds
8:58 PM 69.6 °F 63.9 °F 82% 29.90 in 10.0 mi NW 4.6 mph - N/A   Clear
9:58 PM 67.1 °F 63.7 °F 89% 29.92 in 10.0 mi Calm Calm - N/A   Clear
10:58 PM 66.2 °F 63.5 °F 91% 29.92 in 10.0 mi Calm Calm - N/A   Clear
11:58 PM 66.0 °F 61.9 °F 86% 29.93 in 10.0 mi Calm Calm - N/A   Clear